Home   Weather   Constantine   Past weeks

Flag for Algeria Past Weather in Constantine, Algeria — Yesterday and Last 2 Weeks

Now
52 °F

Broken clouds.


Feels Like: 46 °F
Forecast: 31 / 49 °F
Wind: 17 mph from South

Location: Constantine Airport

Current Time: Jan 22, 2017 at 3:43:18 pm

Latest Report: Jan 22, 2017 at 3:00 pm


Visibility: N/A

Pressure: 29.74 "Hg (27.81 "Hg at 557m altitude)

Humidity: 44%

Dew Point: 30 °F

Location of ConstantineLocation

Past Weather in Constantine — Graph

°F

Constantine Temperature Yesterday

Maximum temperature yesterday: 48 °F (at 3:00 pm)
Minimum temperature yesterday: 34 °F (at 8:00 am)
Average temperature yesterday: 42 °F

High & Low Weather Summary for the Past Weeks

 TemperatureHumidityPressure
High55 °F (Jan 13, 2:30 pm)100% (Jan 12, 3:30 am)30.36 "Hg (Jan 12, 3:30 am)
Low23 °F (Jan 19, 6:30 am)41% (Jan 22, 2:00 pm)29.62 "Hg (Jan 21, 6:00 am)
Average40 °F81%30.03 "Hg
* Reported Jan 7 2:00 pm — Jan 22 2:30 pm, Constantine, Weather by CustomWeather, © 2017

Note: Actual official high and low records may vary slightly from our data, if they occured in-between our weather recording intervals... More about our weather records

Advertising

Constantine Weather History for the Previous 24 Hours

Scroll right to see more
 ConditionsComfort  
Time TempWeatherWind HumidityBarometerVisibility
2:30 pm
Sun, Jan 22
52 °FBroken clouds.15 mph41%29.74 "HgN/A
2:00 pm52 °FBroken clouds.17 mph41%29.74 "HgN/A
1:30 pm54 °FScattered clouds.21 mph44%29.74 "HgN/A
1:00 pm52 °FScattered clouds.22 mph44%29.77 "HgN/A
12:30 pm54 °FScattered clouds.21 mph44%29.77 "HgN/A
6:00 am36 °FPassing clouds.3 mph81%29.74 "HgN/A
4:00 am37 °FPassing clouds.10 mph75%29.77 "HgN/A
2:00 am37 °FPassing clouds.9 mph75%29.77 "HgN/A
1:00 am39 °FPassing clouds.3 mph75%29.77 "HgN/A
12:00 am39 °FPassing clouds.5 mph75%29.77 "HgN/A
11:00 pm
Sat, Jan 21
39 °FPassing clouds.9 mph75%29.77 "HgN/A
10:00 pm39 °FPassing clouds.15 mph70%29.74 "HgN/A
9:00 pm41 °FPassing clouds.10 mph70%29.74 "HgN/A
8:00 pm43 °FPassing clouds.14 mph66%29.74 "HgN/A
6:00 pm43 °FPassing clouds.13 mph66%29.68 "HgN/A
5:00 pm45 °FScattered clouds.17 mph57%29.65 "HgN/A
4:00 pm48 °FScattered clouds.15 mph54%29.65 "HgN/A
3:00 pm48 °FScattered clouds.15 mph62%29.65 "HgN/A
Weather by CustomWeather, © 2017

See weather overviewHow to use our weather pages